Location: *
(41.7492°S, 135.4150°W)
Time: 22:33:54
(UTC+00:00)

Cosmos 1666 Rocket - Pass Details

Date: 20 September 2021
Orbit: 603 x 633 km, 82.5° (Epoch: 25 October)

Event Time Altitude Azimuth Distance (km) Brightness Sun altitude
Rises 13:20:46 0° 5° (N) 2,872 6.9 -18.0°
Reaches altitude 10° 13:23:00 10° 9° (N) 1,980 6.1 -17.6°
Maximum altitude 13:27:17 56° 86° (E) 750 4.3 -16.8°
Drops below altitude 10° 13:31:41 10° 163° (SSE) 2,029 6.6 -16.0°
Sets 13:33:59 0° 167° (SSE) 2,949 7.4 -15.6°
